Regional Weather Roundup
Issued by NWS

Home | Current Version | Previous Version | Graphics & Text | Print | Product List | Glossary On
Versions: 1 2 3 4 5 6 7 8 9 10 11 12 13 14 15 16 17 18 19 20 21 22 23 24 25 26 27 28 29 30 31 32 33 34 35 36 37 38 39 40 41 42 43 44 45 46 47 48 49 50
382
ASUS45 KCYS 182310
RWRWY

WYOMING REGIONAL WEATHER ROUNDUP
NATIONAL WEATHER SERVICE CHEYENNE WY
500 PM MDT MON SEP 18 2017

NOTE:  "FAIR" INDICATES FEW OR NO CLOUDS BELOW 12,000 FEET
WITH NO SIGNIFICANT WEATHER AND/OR OBSTRUCTIONS TO VISIBILITY.

WYZ001-190000-
YELLOWSTONE NATIONAL PARK

CITY           SKY/WX    TMP DP  RH WIND       PRES   REMARKS
LK YELLOWSTONE   N/A     50  32  50 W8        29.92R
W YELLOWSTONE  NOT AVBL

$$
WYZ002>013-054>058-071-098>099-190000-
NORTHERN WYOMING

CITY           SKY/WX    TMP DP  RH WIND       PRES   REMARKS
JACKSON        NOT AVBL
CODY           FAIR      74  29  19 W12G20    29.70F
GREYBULL       FAIR      77  35  21 SE16G25   29.64F
WORLAND        FAIR      78  35  21 SW10      29.69F
SHERIDAN       FAIR      77  35  21 SE7       29.68F
BUFFALO        FAIR      73  30  20 E7        29.74F
GILLETTE       FAIR      73  33  23 SW5       29.73F
HULETT         FAIR      73  32  21 SW8       29.77F
NEWCASTLE      FAIR      75  32  20 SE7       29.79F

$$
WYZ014>020-022>026-101>103-190000-
CENTRAL WYOMING

CITY           SKY/WX    TMP DP  RH WIND       PRES   REMARKS
BIG PINEY      PTSUNNY   64  31  28 SW15      29.92F
PINEDALE       MOCLDY    64  28  25 SW20G25   29.93F
DUBOIS         CLOUDY    54  32  43 NW18G38   29.89F
LANDER         NOT AVBL
RIVERTON       FAIR      75  29  18 SW21G30   29.78F
CASPER         FAIR      75  26  16 SW26G32   29.81F
DOUGLAS        FAIR      78  27  15 SW17G26   29.82F

$$
WYZ021-027>030-104>119-190000-
SOUTHERN WYOMING

CITY           SKY/WX    TMP DP  RH WIND       PRES   REMARKS
EVANSTON       FAIR      70  32  24 SW25G32   29.94F
KEMMERER         N/A     66  27  22 SW25G37   29.94F
FORT BRIDGER   FAIR      72  28  19 W20G33    29.96F
ROCK SPRINGS   PTSUNNY   69  27  20 SW14      29.93F
DIXON          FAIR      73  28  19 SW18G25   29.99F
RAWLINS        FAIR      71  27  19 SW23G31   29.96F
SARATOGA       FAIR      72  28  20 SW22      29.99F
LARAMIE        FAIR      69  25  19 SW9G22    30.01F
CHEYENNE       FAIR      75  28  17 S12G21    29.95F
TORRINGTON     NOT AVBL
PINE BLUFFS    FAIR      77  28  16 S12G20    29.92F

$$




USA.gov is the U.S. government's official web portal to all federal, state and local government web resources and services.